Flag for United Kingdom Weather past 2 weeks in Bolton, England, United Kingdom

Now
39 °F

Passing clouds.


Feels Like: 33 °F
Forecast: 37 / 48 °F
Wind: 9 mph from Southwest

Location: Manchester Airport

Current Time: Apr 27, 2015 at 10:41:17 PM

Latest Report: Apr 27, 2015 at 9:50 PM


Visibility: N/A

Pressure: 29.83 "Hg

Humidity: 87%

Dew point: 36 °F

Location of BoltonLocation

Historic Weather in Bolton — Graph

°F

Bolton temperature yesterday

Maximum temperature yesterday: 52 °F (at 1:20 PM)
Minimum temperature yesterday: 34 °F (at 5:20 AM)
Average temperature yesterday: 44 °F

Past Weeks' High & Low Weather Summary

 TemperatureHumidityPressure
High66 °F (Apr 21, 2:50 PM)100% (Apr 12, 9:50 PM)30.60 "Hg (Apr 12, 9:50 PM)
Low28 °F (Apr 27, 5:50 AM)30% (Apr 23, 5:20 PM)29.56 "Hg (Apr 25, 5:50 AM)
Average49 °F71%30.15 "Hg
* Reported Apr 12 9:20 PM — Apr 27 9:20 PM, Bolton, Weather by CustomWeather, © 2015

Note: Actual official high and low records may vary slightly from our data, if they occured in-between our weather recording intervals... More about our weather records

Advertising

Bolton weather history for previous 24 hours

 ConditionsComfort  
Time TempWeatherWind HumidityBarometerVisibility
9:20 PM
Mon, Apr 27
39 °FPassing clouds.9 mph87%29.83 "HgN/A
8:50 PM41 °FSprinkles. Passing clouds.10 mph87%29.83 "HgN/A
8:20 PM43 °FLight rain. Partly sunny.22 mph76%29.80 "HgN/A
7:50 PM46 °FPassing clouds.10 mph57%29.80 "HgN/A
7:20 PM46 °FPassing clouds.13 mph57%29.77 "HgN/A
6:50 PM48 °FPassing clouds.12 mph54%29.80 "HgN/A
6:20 PM46 °FPassing clouds.12 mph57%29.80 "HgN/A
5:50 PM46 °FScattered showers. Passing clouds.16 mph57%29.80 "HgN/A
5:20 PM50 °FPassing clouds.14 mph43%29.80 "HgN/A
4:50 PM50 °FPassing clouds.15 mph43%29.80 "HgN/A
4:20 PM50 °FPassing clouds.10 mph43%29.80 "HgN/A
3:50 PM52 °FPassing clouds.9 mph44%29.80 "HgN/A
3:20 PM50 °FPassing clouds.10 mph43%29.83 "HgN/A
2:50 PM50 °FScattered clouds.9 mph37%29.83 "HgN/A
2:20 PM52 °FCool.10 mph32%29.83 "HgN/A
1:50 PM52 °FPassing clouds.8 mph30%29.86 "HgN/A
1:20 PM50 °FPassing clouds.8 mph30%29.86 "HgN/A
12:50 PM50 °FPassing clouds.12 mph30%29.86 "HgN/A
12:20 PM50 °FPassing clouds.8 mph40%29.86 "HgN/A
11:50 AM48 °FPassing clouds.9 mph40%29.89 "HgN/A
11:20 AM48 °FPassing clouds.8 mph43%29.89 "HgN/A
10:50 AM46 °FPassing clouds.8 mph50%29.89 "HgN/A
10:20 AM45 °FPassing clouds.7 mph57%29.89 "HgN/A
9:50 AM45 °FPassing clouds.6 mph57%29.89 "Hg10 mi
9:20 AM43 °FPassing clouds.3 mph66%29.89 "HgN/A
8:50 AM41 °FSunny.2 mph76%29.89 "Hg10 mi
8:20 AM37 °FSunny.3 mph87%29.89 "Hg10 mi
7:50 AM36 °FSunny.5 mph93%29.89 "Hg10 mi
7:20 AM34 °FSunny.3 mph93%29.89 "Hg10 mi
6:50 AM32 °FSunny.3 mph93%29.89 "Hg10 mi
6:20 AM30 °FClear.2 mph93%29.86 "Hg10 mi
5:50 AM28 °FClear.3 mph100%29.86 "Hg10 mi
5:20 AM30 °FClear.2 mph93%29.86 "Hg10 mi
4:50 AM30 °FClear.2 mph93%29.86 "Hg10 mi
4:20 AM30 °FClear.No wind93%29.86 "Hg10 mi
3:50 AM34 °FClear.No wind93%29.86 "Hg10 mi
3:20 AM30 °FChilly.2 mph93%29.86 "HgN/A
2:50 AM32 °FClear.No wind93%29.86 "Hg10 mi
2:20 AM32 °FChilly.2 mph87%29.86 "HgN/A
1:50 AM37 °FChilly.3 mph75%29.86 "HgN/A
1:20 AM34 °FClear.3 mph87%29.86 "Hg10 mi
12:50 AM34 °FClear.2 mph87%29.86 "Hg10 mi
12:20 AM37 °FClear.5 mph75%29.86 "Hg10 mi
11:50 PM
Sun, Apr 26
39 °FClear.5 mph75%29.86 "Hg10 mi
11:20 PM39 °FClear.3 mph75%29.86 "Hg10 mi
10:50 PM41 °FClear.3 mph70%29.86 "Hg10 mi
10:20 PM41 °FQuite cool.5 mph70%29.86 "HgN/A
Weather by CustomWeather, © 2015

See weather overviewHow to use our weather pages